Tullahoma, TN

7:43 AM CDT on May 27, 2018 (GMT -0500)
Tullahoma Regional-Northern

Weather History for KTHA - November, 2012

Change the Weather History Date:

Tuesday, November 27, 2012

  Actual Average Record
Temperature  
Mean Temperature 42 °F -  
Max Temperature 48 °F 59 °F 71 °F (2015)
Min Temperature 35 °F 41 °F 17 °F (2013)
Degree Days  
Heating Degree Days 24    
Moisture  
Dew Point 38 °F    
Average Humidity 92    
Maximum Humidity 100    
Minimum Humidity 75    
Precipitation  
Precipitation 0.00 in - - ()
Sea Level Pressure  
Sea Level Pressure 30.23 in    
Wind  
Wind Speed 6 mph ()    
Max Wind Speed 13 mph    
Max Gust Speed -    
Visibility 7.4 miles    
Events      
Averages and records for this station are not official NWS values.
T = Trace of Precipitation, MM = Missing Value Source: Averaged Metar Reports

Daily Weather History Graph

Daily Weather History Graph

Search for Another Location

Airport or City:

Astronomy

Nov. 27, 2012 Rise Set
Actual Time 6:32 AM CST 4:33 PM CST
Civil Twilight 6:04 AM CST 5:00 PM CST
Nautical Twilight 5:33 AM CST 5:32 PM CST
Astronomical Twilight 5:02 AM CST 6:02 PM CST
Moon 4:03 PM CST 5:37 AM CST
Length of Visible Light 10h 56m
Length of Day
10h 00m
Waxing Gibbous, 99% of the Moon is Illuminated
Nov 27
Waxing Gibbous
Nov 28
Full
Dec 6
Last Quarter
Dec 13
New
Dec 19
First Quarter

Hourly Weather History & Observations

Time (CST) Temp. Windchill Dew Point Humidity Pressure Visibility Wind Dir Wind Speed Gust Speed Precip Events Conditions
12:15 AM 48.2 °F - 48.2 °F 100% 30.12 in 7.0 mi Calm Calm - N/A   Overcast
12:35 AM 48.2 °F - 48.2 °F 100% 30.11 in 9.0 mi Calm Calm - N/A   Overcast
12:55 AM 48.2 °F - 48.2 °F 100% 30.11 in 9.0 mi Calm Calm - N/A   Overcast
1:15 AM 48.2 °F - 48.2 °F 100% 30.12 in 5.0 mi Calm Calm - N/A   Overcast
1:35 AM 48.2 °F - 48.2 °F 100% 30.12 in 5.0 mi NNW 3.5 mph - N/A   Overcast
1:55 AM 48.2 °F - 48.2 °F 100% 30.12 in 2.0 mi NNW 4.6 mph - N/A   Overcast
2:15 AM 48.2 °F - 48.2 °F 100% 30.12 in 2.0 mi NNW 4.6 mph - N/A   Overcast
2:35 AM 44.6 °F 38.4 °F 44.6 °F 100% 30.13 in 2.0 mi NNW 12.7 mph - N/A   Overcast
2:55 AM 44.6 °F 39.7 °F 42.8 °F 93% 30.13 in 2.5 mi North 9.2 mph - N/A   Overcast
3:15 AM 42.8 °F 36.6 °F 42.8 °F 100% 30.14 in 4.0 mi NNW 11.5 mph - N/A   Overcast
3:35 AM 42.8 °F 38.0 °F 42.8 °F 100% 30.14 in 5.0 mi NNW 8.1 mph - N/A   Overcast
3:55 AM 42.8 °F 36.6 °F 42.8 °F 100% 30.14 in 8.0 mi NNW 11.5 mph - N/A   Overcast
4:15 AM 42.8 °F 37.0 °F 42.8 °F 100% 30.16 in 10.0 mi NW 10.4 mph - N/A   Overcast
4:35 AM 41.0 °F 35.2 °F 41.0 °F 100% 30.16 in 10.0 mi North 9.2 mph - N/A   Overcast
4:55 AM 41.0 °F 33.9 °F 41.0 °F 100% 30.16 in 10.0 mi North 12.7 mph - N/A   Overcast
5:15 AM 41.0 °F 34.3 °F 41.0 °F 100% 30.16 in 10.0 mi North 11.5 mph - N/A   Overcast
5:35 AM 41.0 °F 35.8 °F 41.0 °F 100% 30.16 in 10.0 mi NNW 8.1 mph - N/A   Overcast
5:55 AM 41.0 °F 35.2 °F 41.0 °F 100% 30.17 in 10.0 mi North 9.2 mph - N/A   Overcast
6:15 AM 41.0 °F 34.7 °F 39.2 °F 93% 30.18 in 10.0 mi North 10.4 mph - N/A   Overcast
6:35 AM 41.0 °F 35.2 °F 41.0 °F 100% 30.19 in 9.0 mi North 9.2 mph - N/A   Overcast
6:55 AM 41.0 °F 34.7 °F 39.2 °F 93% 30.20 in 5.0 mi North 10.4 mph - N/A   Overcast
7:15 AM 39.2 °F 33.6 °F 39.2 °F 100% 30.21 in 3.0 mi North 8.1 mph - N/A   Overcast
7:35 AM 39.2 °F 34.2 °F 39.2 °F 100% 30.21 in 3.0 mi North 6.9 mph - N/A   Overcast
7:55 AM 41.0 °F 35.8 °F 39.2 °F 93% 30.22 in 3.0 mi North 8.1 mph - N/A   Overcast
8:15 AM 41.0 °F 34.3 °F 39.2 °F 93% 30.23 in 5.0 mi NNE 11.5 mph - N/A   Overcast
8:35 AM 41.0 °F 35.8 °F 39.2 °F 93% 30.24 in 5.0 mi North 8.1 mph - N/A   Overcast
8:55 AM 41.0 °F 35.8 °F 39.2 °F 93% 30.25 in 4.0 mi North 8.1 mph - N/A   Overcast
9:15 AM 39.2 °F 33.0 °F 39.2 °F 100% 30.25 in 1.0 mi North 9.2 mph - N/A   Overcast
9:35 AM 39.2 °F 33.6 °F 39.2 °F 100% 30.26 in 2.0 mi North 8.1 mph - N/A   Overcast
9:55 AM 39.2 °F 34.2 °F 39.2 °F 100% 30.27 in 0.2 mi NNW 6.9 mph - N/A   Overcast
10:15 AM 39.2 °F 33.6 °F 39.2 °F 100% 30.26 in 0.2 mi North 8.1 mph - N/A   Overcast
10:35 AM 39.2 °F 32.0 °F 39.2 °F 100% 30.26 in 1.2 mi North 11.5 mph - N/A   Overcast
10:55 AM 39.2 °F 33.0 °F 39.2 °F 100% 30.26 in 2.5 mi NNW 9.2 mph - N/A   Overcast
11:15 AM 41.0 °F 34.7 °F 39.2 °F 93% 30.25 in 4.0 mi North 10.4 mph - N/A   Overcast
11:35 AM 41.0 °F 34.3 °F 39.2 °F 93% 30.24 in 6.0 mi NNE 11.5 mph - N/A   Overcast
11:55 AM 41.0 °F 35.2 °F 39.2 °F 93% 30.23 in 6.0 mi North 9.2 mph - N/A   Overcast
12:15 PM 41.0 °F 34.3 °F 39.2 °F 93% 30.23 in 8.0 mi North 11.5 mph - N/A   Overcast
12:35 PM 41.0 °F 35.8 °F 37.4 °F 87% 30.23 in 10.0 mi NNE 8.1 mph - N/A   Overcast
12:55 PM 41.0 °F 34.3 °F 39.2 °F 93% 30.23 in 6.0 mi North 11.5 mph - N/A   Overcast
1:15 PM 41.0 °F 35.2 °F 37.4 °F 87% 30.22 in 10.0 mi North 9.2 mph - N/A   Overcast
1:35 PM 41.0 °F 35.2 °F 37.4 °F 87% 30.23 in 8.0 mi North 9.2 mph - N/A   Overcast
1:55 PM 39.2 °F 33.6 °F 37.4 °F 93% 30.23 in 10.0 mi NNE 8.1 mph - N/A   Overcast
2:15 PM 39.2 °F 33.0 °F 37.4 °F 93% 30.23 in 7.0 mi North 9.2 mph - N/A   Overcast
2:35 PM 39.2 °F 32.5 °F 37.4 °F 93% 30.24 in 8.0 mi NNW 10.4 mph - N/A   Overcast
2:55 PM 39.2 °F 33.6 °F 37.4 °F 93% 30.24 in 10.0 mi North 8.1 mph - N/A   Overcast
3:15 PM 39.2 °F 33.6 °F 35.6 °F 87% 30.25 in 10.0 mi North 8.1 mph - N/A   Overcast
3:35 PM 39.2 °F 33.6 °F 35.6 °F 87% 30.26 in 10.0 mi North 8.1 mph - N/A   Overcast
4:15 PM 39.2 °F 32.5 °F 35.6 °F 87% 30.27 in 10.0 mi North 10.4 mph - N/A   Overcast
4:35 PM 39.2 °F 33.6 °F 33.8 °F 81% 30.28 in 10.0 mi North 8.1 mph - N/A   Overcast
4:55 PM 39.2 °F 33.0 °F 33.8 °F 81% 30.28 in 10.0 mi North 9.2 mph - N/A   Overcast
5:15 PM 39.2 °F 33.6 °F 33.8 °F 81% 30.29 in 10.0 mi North 8.1 mph - N/A   Overcast
5:55 PM 37.4 °F 32.1 °F 33.8 °F 87% 30.30 in 10.0 mi North 6.9 mph - N/A   Overcast
6:15 PM 37.4 °F 32.1 °F 33.8 °F 87% 30.31 in 10.0 mi North 6.9 mph - N/A   Overcast
6:35 PM 37.4 °F 30.8 °F 33.8 °F 87% 30.31 in 10.0 mi North 9.2 mph - N/A   Overcast
6:55 PM 37.4 °F 31.4 °F 33.8 °F 87% 30.32 in 10.0 mi NNE 8.1 mph - N/A   Overcast
7:15 PM 37.4 °F 31.4 °F 33.8 °F 87% 30.32 in 10.0 mi NNE 8.1 mph - N/A   Overcast
7:35 PM 37.4 °F 31.4 °F 32.0 °F 81% 30.31 in 10.0 mi NNE 8.1 mph - N/A   Overcast
7:55 PM 37.4 °F 32.1 °F 32.0 °F 81% 30.32 in 10.0 mi NE 6.9 mph - N/A   Overcast
8:15 PM 37.4 °F 30.8 °F 32.0 °F 81% 30.32 in 10.0 mi NNE 9.2 mph - N/A   Overcast
8:35 PM 37.4 °F 31.4 °F 30.2 °F 75% 30.31 in 10.0 mi NNE 8.1 mph - N/A   Overcast
8:55 PM 37.4 °F 32.8 °F 30.2 °F 75% 30.31 in 10.0 mi NE 5.8 mph - N/A   Overcast
9:15 PM 37.4 °F 32.8 °F 30.2 °F 75% 30.31 in 10.0 mi ENE 5.8 mph - N/A   Overcast
9:35 PM 35.6 °F 30.7 °F 30.2 °F 81% 30.31 in 10.0 mi North 5.8 mph - N/A   Overcast
9:55 PM 35.6 °F 29.9 °F 30.2 °F 81% 30.31 in 10.0 mi NNE 6.9 mph - N/A   Overcast
10:15 PM 35.6 °F 30.7 °F 30.2 °F 81% 30.31 in 10.0 mi North 5.8 mph - N/A   Overcast
10:35 PM 35.6 °F 30.7 °F 30.2 °F 81% 30.32 in 10.0 mi North 5.8 mph - N/A   Overcast
10:55 PM 35.6 °F 29.9 °F 30.2 °F 81% 30.32 in 10.0 mi NNE 6.9 mph - N/A   Overcast
11:15 PM 35.6 °F 29.2 °F 30.2 °F 81% 30.31 in 10.0 mi NNE 8.1 mph - N/A   Overcast
11:55 PM 35.6 °F 31.7 °F 30.2 °F 81% 30.31 in 10.0 mi North 4.6 mph - N/A   Overcast